• In Deutschland
  • Länderverzeichnis
  • Für 7 Tage
  • Wassertemperatur
  • Satellitenkarten
  • Wetterkarte
  • Widgets
  • user-avatar
    Anmelden

    Stündliche Wetter Kos

    Heute, 18 Februar, Sonntag

    Zeit Temperatur Niederschläge Wind Luftdruck Luftfeuchtigkeit
    00:00 +6°C° 0 mm 8 m/S 764 mmHg 85%
    01:00 +6°C° 0 mm 8 m/S 764 mmHg 86%
    02:00 +6°C° 0 mm 8 m/S 764 mmHg 86%
    03:00 +6°C° 0 mm 8 m/S 764 mmHg 86%
    04:00 +5°C° 0 mm 8 m/S 764 mmHg 85%
    05:00 +5°C° 0 mm 7 m/S 764 mmHg 85%
    06:00 +6°C° 0 mm 7 m/S 764 mmHg 82%
    07:00 +6°C° 0 mm 7 m/S 764 mmHg 80%
    08:00 +6°C° 0 mm 7 m/S 764 mmHg 77%
    09:00 +10°C° 0 mm 7 m/S 764 mmHg 70%
    10:00 +12°C° 0 mm 7 m/S 764 mmHg 62%
    11:00 +15°C° 0 mm 6 m/S 764 mmHg 54%
    12:00 +16°C° 0 mm 6 m/S 763 mmHg 50%
    13:00 +17°C° 0 mm 6 m/S 763 mmHg 46%
    14:00 +20°C° 0 mm 6 m/S 763 mmHg 42%
    15:00 +19°C° 0 mm 6 m/S 763 mmHg 47%
    16:00 +17°C° 0 mm 6 m/S 763 mmHg 52%
    17:00 +16°C° 0 mm 6 m/S 762 mmHg 57%
    18:00 +15°C° 0 mm 6 m/S 763 mmHg 59%
    19:00 +13°C° 0 mm 5 m/S 763 mmHg 61%
    20:00 +12°C° 0 mm 5 m/S 763 mmHg 63%
    21:00 +10°C° 0 mm 5 m/S 763 mmHg 62%
    22:00 +10°C° 0 mm 5 m/S 763 mmHg 62%
    23:00 +10°C° 0 mm 5 m/S 762 mmHg 61%

    Morgen, 19 Februar, Montag

    Zeit Temperatur Niederschläge Wind Luftdruck Luftfeuchtigkeit
    00:00 +11°C° 0 mm 4 m/S 762 mmHg 60%
    01:00 +10°C° 0 mm 4 m/S 762 mmHg 60%
    02:00 +10°C° 0 mm 4 m/S 762 mmHg 59%
    03:00 +10°C° 0 mm 4 m/S 762 mmHg 59%
    04:00 +10°C° 0 mm 4 m/S 762 mmHg 59%
    05:00 +10°C° 0 mm 4 m/S 762 mmHg 59%
    06:00 +10°C° 0 mm 3 m/S 762 mmHg 61%
    07:00 +11°C° 0 mm 3 m/S 762 mmHg 62%
    08:00 +11°C° 0 mm 3 m/S 762 mmHg 63%
    09:00 +14°C° 0 mm 2 m/S 762 mmHg 60%
    10:00 +15°C° 0 mm 2 m/S 762 mmHg 56%
    11:00 +17°C° 0 mm 2 m/S 762 mmHg 52%
    12:00 +17°C° 0 mm 2 m/S 762 mmHg 53%
    13:00 +18°C° 0 mm 3 m/S 762 mmHg 53%
    14:00 +18°C° 0 mm 3 m/S 762 mmHg 54%
    15:00 +17°C° 0 mm 3 m/S 762 mmHg 60%
    16:00 +16°C° 0 mm 3 m/S 761 mmHg 65%
    17:00 +16°C° 0 mm 2 m/S 761 mmHg 71%
    18:00 +15°C° 0 mm 2 m/S 762 mmHg 75%
    19:00 +14°C° 0 mm 2 m/S 762 mmHg 80%
    20:00 +12°C° 0 mm 1 m/S 762 mmHg 84%
    21:00 +12°C° 0 mm 1 m/S 762 mmHg 86%
    22:00 +12°C° 0 mm 1 m/S 762 mmHg 88%
    23:00 +11°C° 0 mm 1 m/S 763 mmHg 90%

    übermorgen, 20 Februar, Dienstag

    Zeit Temperatur Niederschläge Wind Luftdruck Luftfeuchtigkeit
    00:00 +11°C° 0 mm 1 m/S 762 mmHg 90%
    01:00 +11°C° 0 mm 1 m/S 762 mmHg 90%
    02:00 +11°C° 0 mm 1 m/S 762 mmHg 91%
    03:00 +11°C° 0 mm 1 m/S 762 mmHg 91%
    04:00 +10°C° 0 mm 1 m/S 762 mmHg 91%
    05:00 +10°C° 0 mm 1 m/S 762 mmHg 91%
    06:00 +10°C° 0 mm 1 m/S 762 mmHg 89%
    07:00 +11°C° 0 mm 1 m/S 762 mmHg 87%
    08:00 +11°C° 0 mm 1 m/S 762 mmHg 85%
    09:00 +13°C° 0,2 mm 1 m/S 762 mmHg 79%
    10:00 +14°C° 0,2 mm 1 m/S 762 mmHg 74%
    11:00 +16°C° 0,2 mm 1 m/S 762 mmHg 68%
    12:00 +15°C° 0,1 mm 1 m/S 762 mmHg 73%
    13:00 +15°C° 0,1 mm 2 m/S 762 mmHg 78%
    14:00 +14°C° 0,1 mm 2 m/S 761 mmHg 82%
    15:00 +14°C° 0 mm 2 m/S 761 mmHg 80%
    16:00 +15°C° 0 mm 2 m/S 761 mmHg 78%
    17:00 +15°C° 0 mm 2 m/S 761 mmHg 76%
    18:00 +14°C° 0 mm 2 m/S 761 mmHg 80%
    19:00 +13°C° 0 mm 2 m/S 761 mmHg 83%
    20:00 +10°C° 0 mm 2 m/S 761 mmHg 87%
    21:00 +10°C° 0 mm 2 m/S 761 mmHg 87%
    22:00 +10°C° 0 mm 3 m/S 761 mmHg 87%
    23:00 +10°C° 0 mm 3 m/S 761 mmHg 88%

    21 Februar, Mittwoch

    Zeit Temperatur Niederschläge Wind Luftdruck Luftfeuchtigkeit
    00:00 +10°C° 0 mm 3 m/S 761 mmHg 87%
    01:00 +8°C° 0 mm 4 m/S 760 mmHg 86%
    02:00 +8°C° 0 mm 4 m/S 760 mmHg 86%
    03:00 +8°C° 0,2 mm 4 m/S 760 mmHg 85%
    04:00 +8°C° 0,2 mm 5 m/S 760 mmHg 84%
    05:00 +8°C° 0,2 mm 5 m/S 759 mmHg 83%
    06:00 +8°C° 0,4 mm 5 m/S 759 mmHg 83%
    07:00 +9°C° 0,4 mm 6 m/S 759 mmHg 82%
    08:00 +9°C° 0,4 mm 6 m/S 759 mmHg 82%
    09:00 +11°C° 0,4 mm 6 m/S 759 mmHg 75%
    10:00 +14°C° 0,4 mm 6 m/S 759 mmHg 68%
    11:00 +16°C° 0,4 mm 7 m/S 759 mmHg 61%
    12:00 +16°C° 0,5 mm 7 m/S 759 mmHg 62%
    13:00 +16°C° 0,5 mm 7 m/S 758 mmHg 63%
    14:00 +16°C° 0,5 mm 8 m/S 758 mmHg 64%
    15:00 +16°C° 0,7 mm 8 m/S 757 mmHg 66%
    16:00 +16°C° 0,7 mm 8 m/S 757 mmHg 69%
    17:00 +15°C° 0,7 mm 8 m/S 757 mmHg 71%
    18:00 +13°C° 1,1 mm 9 m/S 757 mmHg 75%
    19:00 +12°C° 1,1 mm 9 m/S 757 mmHg 79%
    20:00 +11°C° 1,1 mm 9 m/S 758 mmHg 83%
    21:00 +11°C° 1,3 mm 9 m/S 757 mmHg 85%
    22:00 +10°C° 1,3 mm 9 m/S 757 mmHg 87%
    23:00 +10°C° 1,3 mm 9 m/S 757 mmHg 89%

    22 Februar, Donnerstag

    Zeit Temperatur Niederschläge Wind Luftdruck Luftfeuchtigkeit
    00:00 +10°C° 0,9 mm 9 m/S 757 mmHg 89%
    01:00 +10°C° 0,9 mm 9 m/S 757 mmHg 89%
    02:00 +10°C° 0,9 mm 9 m/S 757 mmHg 90%
    03:00 +10°C° 1,5 mm 9 m/S 756 mmHg 90%
    04:00 +10°C° 1,5 mm 9 m/S 756 mmHg 91%
    05:00 +10°C° 1,5 mm 9 m/S 755 mmHg 91%
    06:00 +9°C° 1 mm 10 m/S 755 mmHg 91%
    07:00 +9°C° 1 mm 10 m/S 755 mmHg 90%
    08:00 +9°C° 1 mm 11 m/S 755 mmHg 90%
    09:00 +11°C° 1,4 mm 11 m/S 755 mmHg 87%
    10:00 +12°C° 1,4 mm 11 m/S 755 mmHg 85%
    11:00 +12°C° 1,4 mm 11 m/S 755 mmHg 82%
    12:00 +12°C° 1 mm 11 m/S 755 mmHg 83%
    13:00 +12°C° 1 mm 11 m/S 754 mmHg 85%
    14:00 +12°C° 1 mm 11 m/S 754 mmHg 86%
    15:00 +12°C° 0,5 mm 11 m/S 754 mmHg 87%
    16:00 +12°C° 0,5 mm 11 m/S 754 mmHg 88%
    17:00 +12°C° 0,5 mm 10 m/S 754 mmHg 89%
    18:00 +12°C° 0,5 mm 9 m/S 755 mmHg 89%
    19:00 +11°C° 0,5 mm 9 m/S 755 mmHg 89%
    20:00 +11°C° 0,5 mm 8 m/S 755 mmHg 89%
    21:00 +11°C° 0,5 mm 7 m/S 755 mmHg 89%
    22:00 +11°C° 0,5 mm 6 m/S 756 mmHg 89%
    23:00 +12°C° 0,5 mm 5 m/S 756 mmHg 89%

    23 Februar, Freitag

    Zeit Temperatur Niederschläge Wind Luftdruck Luftfeuchtigkeit
    00:00 +12°C° 0,4 mm 5 m/S 756 mmHg 88%
    01:00 +12°C° 0,4 mm 5 m/S 756 mmHg 87%
    02:00 +12°C° 0,4 mm 4 m/S 756 mmHg 86%
    03:00 +12°C° 0,3 mm 5 m/S 756 mmHg 87%
    04:00 +12°C° 0,3 mm 5 m/S 756 mmHg 87%
    05:00 +12°C° 0,3 mm 5 m/S 756 mmHg 88%
    06:00 +13°C° 0,1 mm 5 m/S 756 mmHg 89%
    07:00 +13°C° 0,1 mm 5 m/S 757 mmHg 90%
    08:00 +13°C° 0,1 mm 5 m/S 757 mmHg 91%
    09:00 +14°C° 0,1 mm 5 m/S 757 mmHg 89%
    10:00 +15°C° 0,1 mm 5 m/S 757 mmHg 87%
    11:00 +15°C° 0,1 mm 5 m/S 758 mmHg 85%
    12:00 +15°C° 0,2 mm 5 m/S 758 mmHg 85%
    13:00 +15°C° 0,2 mm 5 m/S 758 mmHg 86%
    14:00 +15°C° 0,2 mm 5 m/S 758 mmHg 87%
    15:00 +15°C° 0,1 mm 5 m/S 758 mmHg 87%
    16:00 +15°C° 0,1 mm 4 m/S 758 mmHg 87%
    17:00 +15°C° 0,1 mm 4 m/S 758 mmHg 88%
    18:00 +14°C° 0 mm 4 m/S 759 mmHg 90%
    19:00 +13°C° 0 mm 3 m/S 759 mmHg 93%
    20:00 +12°C° 0 mm 3 m/S 759 mmHg 96%
    21:00 +12°C° 0 mm 4 m/S 759 mmHg 95%
    22:00 +10°C° 0 mm 6 m/S 759 mmHg 95%
    23:00 +10°C° 0 mm 7 m/S 759 mmHg 94%
    Mehr zeigen